Concordia, KS

9:31 PM CDT on October 18, 2019 (GMT -0500)
Blosser Municipal

Weather History for KCNK - August, 2019

Change the Weather History Date:

Tuesday, August 6, 2019

  Actual Average Record
Temperature  
Mean Temperature 81 °F 78 °F  
Max Temperature 91 °F 90 °F 109 °F (1934)
Min Temperature 71 °F 67 °F 54 °F (1990)
Degree Days  
Heating Degree Days 0 0  
Month to date heating degree days 0 0  
Since 1 June heating degree days 0 13  
Since 1 July heating degree days 0 0  
Cooling Degree Days 16 13  
Month to date cooling degree days 81 83  
Year to date cooling degree days 986 873  
Since 1 June cooling degree days 886 784  
Growing Degree Days 31 (Base 50)    
Moisture  
Dew Point 72 °F    
Average Humidity 75    
Maximum Humidity 93    
Minimum Humidity 56    
Precipitation  
Precipitation 0.00 in 0.10 in 1.62 in (1967)
Month to date precipitation 1.44 0.64  
Year to date precipitation 23.67 18.60  
Snow  
Snow 0.00 in 0.00 in T in (1928)
Month to date snowfall 0.0 0.0  
Year to date snowfall 32.3 13.7  
Since 1 July snowfall 0.0 0.0  
Snow Depth 0.00 in    
Sea Level Pressure  
Sea Level Pressure 29.89 in    
Wind  
Wind Speed 4 mph (ENE)    
Max Wind Speed 9 mph    
Max Gust Speed 16 mph    
Visibility 10 miles    
Events Rain    
T = Trace of Precipitation, MM = Missing Value Source: NWS Daily Summary

Daily Weather History Graph

Daily Weather History Graph

Search for Another Location

Airport or City:

Astronomy

Aug. 06, 2019 Rise Set
Actual Time 6:34 AM CDT 8:37 PM CDT
Civil Twilight 6:04 AM CDT 9:07 PM CDT
Nautical Twilight 5:28 AM CDT 9:43 PM CDT
Astronomical Twilight 4:49 AM CDT 10:22 PM CDT
Moon 12:59 PM CDT (8/6) No Moon Set
Length of Visible Light 15h 02m
Length of Day
14h 03m
Waxing Crescent, 39% of the Moon is Illuminated
Aug 6
Waxing Crescent
Aug 7
First Quarter
Aug 15
Full
Aug 23
Last Quarter
Aug 30
New

Hourly Weather History & Observations

Time (CDT) Temp. Heat Index Dew Point Humidity Pressure Visibility Wind Dir Wind Speed Gust Speed Precip Events Conditions
12:55 AM 77.0 °F - 71.1 °F 82% 29.90 in 10.0 mi WSW 6.9 mph - N/A   Clear
1:55 AM 73.9 °F - 71.1 °F 91% 29.91 in 10.0 mi West 5.8 mph - N/A   Clear
2:55 AM 75.0 °F - 72.0 °F 90% 29.92 in 9.0 mi NNW 5.8 mph - N/A   Clear
3:55 AM 73.9 °F - 71.1 °F 91% 29.92 in 10.0 mi NW 4.6 mph - N/A   Clear
4:55 AM 73.0 °F - 70.0 °F 90% 29.91 in 10.0 mi Calm Calm - 0.00 in Rain Light Rain
5:55 AM 73.0 °F - 70.0 °F 90% 29.92 in 10.0 mi Calm Calm - 0.00 in   Clear
6:55 AM 72.0 °F - 69.1 °F 91% 29.92 in 10.0 mi North 3.5 mph - N/A   Clear
7:55 AM 75.0 °F - 71.1 °F 87% 29.93 in 10.0 mi NE 5.8 mph - N/A   Clear
8:55 AM 77.0 °F - 71.1 °F 82% 29.94 in 10.0 mi ENE 5.8 mph - N/A   Clear
9:55 AM 80.1 °F 84.2 °F 73.0 °F 79% 29.94 in 10.0 mi ENE 5.8 mph - N/A   Clear
10:55 AM 82.0 °F 87.9 °F 73.9 °F 76% 29.94 in 10.0 mi Variable 3.5 mph - N/A   Clear
11:55 AM 84.9 °F 91.4 °F 73.0 °F 67% 29.94 in 10.0 mi East 4.6 mph - N/A   Clear
12:55 PM 86.0 °F 93.0 °F 73.0 °F 65% 29.93 in 10.0 mi Calm Calm - N/A   Clear
1:55 PM 88.0 °F 97.5 °F 75.0 °F 65% 29.91 in 10.0 mi SE 4.6 mph - N/A   Clear
2:55 PM 89.1 °F 98.0 °F 73.9 °F 61% 29.90 in 10.0 mi Variable 4.6 mph - N/A   Partly Cloudy
3:55 PM 90.0 °F 97.9 °F 73.0 °F 57% 29.88 in 10.0 mi Calm Calm - N/A   Clear
4:55 PM 90.0 °F 97.9 °F 73.0 °F 57% 29.86 in 10.0 mi East 3.5 mph - N/A   Clear
5:55 PM 89.1 °F 96.0 °F 72.0 °F 57% 29.85 in 10.0 mi East 6.9 mph - N/A   Clear
6:55 PM 88.0 °F 94.7 °F 72.0 °F 59% 29.83 in 10.0 mi East 6.9 mph - N/A   Clear
7:55 PM 86.0 °F 93.8 °F 73.9 °F 67% 29.83 in 10.0 mi East 4.6 mph - N/A   Clear
8:55 PM 80.1 °F 84.5 °F 73.9 °F 81% 29.84 in 10.0 mi ESE 4.6 mph - N/A   Clear
9:55 PM 79.0 °F - 73.0 °F 82% 29.85 in 10.0 mi East 3.5 mph - N/A   Clear
10:55 PM 77.0 °F - 71.1 °F 82% 29.87 in 10.0 mi ESE 4.6 mph - N/A   Clear
11:55 PM 75.9 °F - 70.0 °F 82% 29.83 in 10.0 mi ESE 6.9 mph - N/A   Clear